Location: Chuathbaluk
(61.5726°N, 159.2454°W)
Time: 14:07:17
(UTC+00:00)

NOAA 15 - Pass Details

Date: 17 January 2021
Orbit: 798 x 812 km, 98.7° (Epoch: 01 March)

Event Time Altitude Azimuth Distance (km) Brightness Sun altitude
Rises 17:46:03 0° 19° (NNE) 3,339 7.8 -11.3°
Reaches altitude 10° 17:48:35 10° 28° (NNE) 2,405 7.1 -11.0°
Maximum altitude 17:53:29 36° 95° (E) 1,260 6.3 -10.5°
Drops below altitude 10° 17:58:22 10° 162° (SSE) 2,398 7.7 -10.0°
Sets 18:00:53 0° 171° (S) 3,326 8.3 -9.7°
